1293929425852,0.000143321
1293929485852,0.000142919
1293929545852,0.000143558
1293929605852,0.000143045
1293929665852,0.000143765
1293933025863,0.000143238
1293933085863,0.000143737
1293933145863,0.000143763
1293933205863,0.000144127
1293933265863,0.000143033
1293936625874,0.000144093
1293936685874,0.000144460
1293936745874,0.000142553
1293936805874,0.000143276
1293936865874,0.000142930
1293940225885,0.000143191
1293940285885,0.000143882
1293940345885,0.000143621
1293940405885,0.000142859
1293940465885,0.000143964
1293943825896,0.000143236
1293943885896,0.000142741
1293943945896,0.000142753
1293944005896,0.000142642
1293944065896,0.000142899
1293947425907,0.000145409
1293947485907,0.000144079
1293947545907,0.000142126
1293947605907,0.000143567
1293947665907,0.000142510
1293947725907,0.000142264
1293947785907,0.000143602
1293947845907,0.000143861
1293947905907,0.000143780
1293947965907,0.000144017
1293948025918,0.000142070
1293948085918,0.000143692
1293948145918,0.000143248
1293948205918,0.000142750
1293948265918,0.000143173
1293948325918,0.000144333
1293948385918,0.000143176
1293948445918,0.000143363
1293948505918,0.000142865
1293948565918,0.000142910
1293948625918,0.000142517
1293948685918,0.000143259
1293948745918,0.000143489
1293948805918,0.000144023
1293948865918,0.000143823
1293948925918,0.000144473
1293948985918,0.000143565
1293949045918,0.000145236
1293949105918,0.000144665
1293949165919,0.000144601
1293949225918,0.000144498
1293949285918,0.000145682
1293949345918,0.000146996
1293949405918,0.000144233
1293949465918,0.000143940
1293949525918,0.000144715
1293949585918,0.000144411
1293949645918,0.000143714
1293949705918,0.000143747
1293949765918,0.000144605
1293949825918,0.000143682
1293949885918,0.000143481
1293949945918,0.000143342
1293950005918,0.000143571
1293950065918,0.000143998
1293950125918,0.000142787
1293950185918,0.000142566
1293950245918,0.000143764
1293950305918,0.000145069
1293950365918,0.000143781
1293950425918,0.000142629
1293950485918,0.000143862
1293950545919,0.000142877
1293950605918,0.000143094
1293950665918,0.000142353
1293950725918,0.000144687
1293950785918,0.000143355
1293950845918,0.000144030
1293950905918,0.000142834
1293950965918,0.000142145
1293951025918,0.000141791
1293951085918,0.000143315
1293951145918,0.000143032
1293951205918,0.000142541
1293951265918,0.000143937
1293951325918,0.000143356
1293951385918,0.000143335
1293951445918,0.000143235
1293951505918,0.000142391
1293951565918,0.000142377
1293951625930,0.000142961
1293951685930,0.000143488
1293951745930,0.000143293
1293951805930,0.000143028
1293951865930,0.000143462
1293951925930,0.000144405
1293951985930,0.000144914
1293952045930,0.000143386
1293952105930,0.000143581
1293952165930,0.000143558
1293952225930,0.000142462
1293952285930,0.000142858
1293952345930,0.000142784
1293952405930,0.000144872
1293952465930,0.000144640
1293952525930,0.000144255
1293952585930,0.000144109
1293952645930,0.000142645
1293952705930,0.000142775
1293952765930,0.000142197
1293952825930,0.000143696
1293952885930,0.000143148
1293952945930,0.000143958
1293953005930,0.000144195
1293953065930,0.000144195
1293953125930,0.000144249
1293953185930,0.000145325
1293953245930,0.000144021
1293953305930,0.000144063
1293953365930,0.000143081
1293953425930,0.000144140
1293953485930,0.000143707
1293953545930,0.000144328
1293953605930,0.000143561
1293953665930,0.000144348
1293953725930,0.000143508
1293953785930,0.000143764
1293953845930,0.000143253
1293953905930,0.000143207
1293953965930,0.000143382
1293954025930,0.000143565
1293954085930,0.000143444
1293954145930,0.000143249
1293954205930,0.000143200
1293954265930,0.000143440
1293954325930,0.000141717
1293954385930,0.000143290
1293954445930,0.000143283
1293954505930,0.000142742
1293954565930,0.000141575
1293954625930,0.000143794
1293954685930,0.000142520
1293954745930,0.000143947
1293954805930,0.000142735
1293954865930,0.000143455
1293954925930,0.000142599
1293954985930,0.000141750
1293955045930,0.000142989
1293955105930,0.000143208
1293955165930,0.000142563
1293955225942,0.000141992
1293955285942,0.000142274
1293955345942,0.000142857
1293955405942,0.000143189
1293955465942,0.000143250
1293955525942,0.000143101
1293955585942,0.000142511
1293955645942,0.000142304
1293955705942,0.000143522
1293955765942,0.000142420
1293955825942,0.000141965
1293955885942,0.000141642
1293955945942,0.000141230
1293956005942,0.000142822
1293956065942,0.000142660
1293956125942,0.000141452
1293956185942,0.000141145
1293956245942,0.000142270
1293956305942,0.000143188
1293956365942,0.000142097
1293956425942,0.000142021
1293956485942,0.000141545
1293956545942,0.000142429
1293956605942,0.000143351
1293956665942,0.000142124
1293956725942,0.000141628
1293956785942,0.000142284
1293956845942,0.000141962
1293956905942,0.000143193
1293956965942,0.000142590
1293957025942,0.000142135
1293957085942,0.000141184
1293957145942,0.000139837
1293957205942,0.000141639
1293957265942,0.000142270
1293957325942,0.000141685
1293957385942,0.000142047
1293957445942,0.000142223
1293957505942,0.000142263
1293957565942,0.000141544
1293957625942,0.000141073
1293957685942,0.000142230
1293957745942,0.000140821
1293957805942,0.000142232
1293957865942,0.000141992
1293957925942,0.000141543
1293957985942,0.000141262
1293958045942,0.000141496
1293958105942,0.000142071
1293958165942,0.000141718
1293958225942,0.000141625
1293958285942,0.000141738
1293958345942,0.000140993
1293958405942,0.000142572
1293958465942,0.000142522
1293961825954,0.000140471
1293961885954,0.000140444
1293961945954,0.000141215
1293962005954,0.000141630
1293962065954,0.000141052
1293965425966,0.000140232
1293965485966,0.000139747
1293965545966,0.000140131
1293965605966,0.000140206
1293965665966,0.000141866
1293969025978,0.000140415
1293969085978,0.000141141
1293969145978,0.000140350
1293969205978,0.000140467
1293969265978,0.000140895
1293972625990,0.000140670
1293972685990,0.000139948
1293972745990,0.000139690
1293972805990,0.000139379
1293972865990,0.000140143
1293976226003,0.000140577
1293976286003,0.000140864
1293976346003,0.000140514
1293976406003,0.000141286
1293976466003,0.000140771
1293979826015,0.000140855
1293979886015,0.000141047
1293979946015,0.000141783
1293980006015,0.000140966
1293980066015,0.000140139
1293983426027,0.000140369
1293983486027,0.000141543
1293983546027,0.000141094
1293983606027,0.000140851
1293983666027,0.000141437
1293987026039,0.000142343
1293987086039,0.000141461
1293987146039,0.000141504
1293987206039,0.000141871
1293987266039,0.000142018
1293990626051,0.000142642
1293990686051,0.000142279
1293990746051,0.000141562
1293990806051,0.000141978
1293990866051,0.000141777
1293994226063,0.000142402
1293994286063,0.000141120
1293994346063,0.000141672
1293994406063,0.000141528
1293994466063,0.000141338
1293997826075,0.000141260
1293997886075,0.000142200
1293997946075,0.000142697
1293998006075,0.000142404
1293998066075,0.000143929
1294001426086,0.000143957
1294001486086,0.000143543
1294001546086,0.000143714
1294001606086,0.000142563
1294001666086,0.000143182
1294005026098,0.000142614
1294005086098,0.000142987
1294005146098,0.000144098
1294005206098,0.000143257
1294005266098,0.000143344
1294008626109,0.000141518
1294008686109,0.000141989
1294008746109,0.000142651
1294008806109,0.000143351
1294008866109,0.000142544
1294012226120,0.000142882
1294012286120,0.000142899
1294012346120,0.000143082
1294012406120,0.000142480
1294012466120,0.000142789
